WetterOnline ( https://www.wetteronline.de )

Wetter aktuell Anglet

Aktuelles Wetter: Biarritz/Anglet (71m)

6-stündlich | Neueste Meldungen
Ortszeit Temperatur Wetter
Fr, 27.01. 19:00 4.9° C bedeckt
Fr, 27.01. 13:00 4.3° C bedeckt
Fr, 27.01. 7:00 2.1° C leichter Regen
Fr, 27.01. 1:00 1.6° C bedeckt
Do, 26.01. 19:00 5.0° C bewölkt
Do, 26.01. 13:00 7.8° C bedeckt
Do, 26.01. 7:00 3.0° C bedeckt
Do, 26.01. 1:00 2.7° C bedeckt
Ortszeit Temperatur Wetter
Sa, 28.01. 0:00 4.6° C bedeckt
Fr, 27.01. 23:00 4.8° C bedeckt
Fr, 27.01. 22:00 4.7° C bedeckt
Fr, 27.01. 21:00 5.2° C bedeckt
Fr, 27.01. 20:00 4.5° C bewölkt
Fr, 27.01. 19:00 4.9° C bedeckt
Ortszeit Relative Feuchte Sichtweite
Fr, 27.01. 19:00 89% 19 km
Fr, 27.01. 13:00 87% 19 km
Fr, 27.01. 7:00 96% 8 km
Fr, 27.01. 1:00 95% 4.8 km
Do, 26.01. 19:00 80% 16 km
Do, 26.01. 13:00 81% 13 km
Do, 26.01. 7:00 99% 8 km
Do, 26.01. 1:00 98% 2.6 km
Ortszeit Relative Feuchte Sichtweite
Sa, 28.01. 0:00 79% 19 km
Fr, 27.01. 23:00 83% 19 km
Fr, 27.01. 22:00 86% 15 km
Fr, 27.01. 21:00 84% 16 km
Fr, 27.01. 20:00 90% 17 km
Fr, 27.01. 19:00 89% 19 km
Ortszeit Niederschlagsmenge Niederschlagsart
Fr, 27.01. 19:00 0.2 l/m2 in 12 Std. -
Fr, 27.01. 13:00 0.2 l/m2 in 6 Std. -
Fr, 27.01. 7:00 0.6 l/m2 in 12 Std. -
Fr, 27.01. 1:00 0.1 l/m2 in 6 Std. -
Do, 26.01. 19:00 0.2 l/m2 in 12 Std. -
Do, 26.01. 13:00 0.0 l/m2 in 6 Std. -
Do, 26.01. 7:00 0.6 l/m2 in 12 Std. -
Do, 26.01. 1:00 0.6 l/m2 in 6 Std. -
Ortszeit Niederschlagsmenge Niederschlagsart
Sa, 28.01. 0:00 0.0 l/m2 in 1 Std. -
Fr, 27.01. 23:00 0.0 l/m2 in 1 Std. -
Fr, 27.01. 22:00 keine Meldung -
Fr, 27.01. 21:00 0.0 l/m2 in 1 Std. -
Fr, 27.01. 20:00 0.0 l/m2 in 1 Std. -
Fr, 27.01. 19:00 keine Meldung -
Ortszeit Stärke Spitze Richtung
km/h Bft. km/h Grad Sektor
Fr, 27.01. 19:00 4 1 9 100° O
Fr, 27.01. 13:00 4 1 9 110° O
Fr, 27.01. 7:00 4 1 7 250° W
Fr, 27.01. 1:00 7 2 15 190° S
Do, 26.01. 19:00 9 2 15 50° NO
Do, 26.01. 13:00 6 1 11 80° O
Do, 26.01. 7:00 4 1 7 130° SO
Do, 26.01. 1:00 6 1 7 140° SO
Ortszeit Stärke Spitze Richtung
km/h Bft. km/h Grad Sektor
Sa, 28.01. 0:00 6 1 9 360° N
Fr, 27.01. 23:00 6 1 11 30° NO
Fr, 27.01. 22:00 7 2 13 70° O
Fr, 27.01. 21:00 7 2 17 60° NO
Fr, 27.01. 20:00 4 1 6 100° O
Fr, 27.01. 19:00 4 1 9 100° O
Ortszeit Untergrenze Bedeckung Gattung
total tief tief mittel hoch
Fr, 27.01. 19:00 - 8/8 - - - -
Fr, 27.01. 13:00 - 8/8 - - - -
Fr, 27.01. 7:00 - 8/8 - - - -
Fr, 27.01. 1:00 - 8/8 - - - -
Do, 26.01. 19:00 - 7/8 - - - -
Do, 26.01. 13:00 - 8/8 - - - -
Do, 26.01. 7:00 - 8/8 - - - -
Do, 26.01. 1:00 - 8/8 - - - -
Ortszeit Bedeckungsgrad in Achtel und Wolkenuntergrenze
Sa, 28.01. 0:00 8
Fr, 27.01. 23:00 8
Fr, 27.01. 22:00 8
Fr, 27.01. 21:00 8
Fr, 27.01. 20:00 7
Fr, 27.01. 19:00 8
Ortszeit Luftdruck NN (hPa) Tendenz (hPa in 3 Std.)
Fr, 27.01. 19:00 1024 + 1,2
Fr, 27.01. 13:00 1024 - 0,2
Fr, 27.01. 7:00 1023 0,0
Fr, 27.01. 1:00 1024 - 0,9
Do, 26.01. 19:00 1023 + 1,4
Do, 26.01. 13:00 1022 - 0,9
Do, 26.01. 7:00 1025 - 2,0
Do, 26.01. 1:00 1028 - 1,9
Ortszeit Luftdruck NN (hPa) Tendenz (hPa in 3 Std.)
Sa, 28.01. 0:00 1025 + 0,8
Fr, 27.01. 23:00 1025 + 0,9
Fr, 27.01. 22:00 1025 + 0,8
Fr, 27.01. 21:00 1024 + 1,1
Fr, 27.01. 20:00 1024 + 1,1
Fr, 27.01. 19:00 1024 + 1,2
Ortszeit Schneehöhe (cm)
Fr, 27.01. 19:00 0
Fr, 27.01. 13:00 -
Fr, 27.01. 7:00 -
Fr, 27.01. 1:00 -
Do, 26.01. 19:00 -
Do, 26.01. 13:00 0
Do, 26.01. 7:00 -
Do, 26.01. 1:00 -
Ortszeit Schneehöhe (cm)
Sa, 28.01. 0:00 -
Fr, 27.01. 23:00 -
Fr, 27.01. 22:00 0
Fr, 27.01. 21:00 -
Fr, 27.01. 20:00 -
Fr, 27.01. 19:00 0
Link zu dieser Seite / Seite empfehlen

Das Wetter in ...